Flag for Romania Weather past 2 weeks in Cluj-Napoca, Romania

Now
59 °F

Clear.


Feels Like: 59 °F
Forecast: 64 / 84 °F
Wind: No wind

Location: Cluj Airport-Napoca

Current Time: Jul 25, 2014 at 5:38:13 AM

Latest Report: Jul 25, 2014 at 5:00 AM


Visibility: 4 mi

Pressure: 29.92 "Hg

Humidity: 100%

Dew point: 59 °F

Location of Cluj-NapocaLocation

Historic Weather in Cluj-Napoca — Graph

°F

Cluj-Napoca temperature yesterday

Maximum temperature yesterday: 75 °F (at 1:00 PM)
Minimum temperature yesterday: 61 °F (at 3:00 AM)
Average temperature yesterday: 68 °F

Past Weeks' High & Low Weather Summary

 TemperatureHumidityPressure
High88 °F (Jul 21, 4:30 PM)100% (Jul 10, 4:00 AM)30.04 "Hg (Jul 10, 4:00 AM)
Low54 °F (Jul 12, 5:30 AM)29% (Jul 15, 6:30 PM)29.59 "Hg (Jul 11, 6:30 AM)
Average70 °F70%29.89 "Hg
* Reported Jul 10 4:00 AM — Jul 25 4:00 AM, Cluj-Napoca, Weather by CustomWeather, © 2014

Note: Actual official high and low records may vary slightly from our data, if they occured in-between our weather recording intervals... More about our weather records

Advertising

Cluj-Napoca weather history for previous 24 hours

 ConditionsComfort  
Time TempWeatherWind HumidityBarometerVisibility
4:00 AM
Jul 25
61 °FClear.No wind94%29.92 "Hg10 mi
3:00 AM61 °FClear.No wind100%29.92 "Hg10 mi
2:00 AM63 °FClear.2 mph94%29.92 "Hg10 mi
1:00 AM63 °FClear.5 mph94%29.92 "Hg10 mi
12:00 AM64 °FClear.5 mph94%29.92 "Hg10 mi
11:30 PM
Jul 24
64 °FClear.5 mph94%29.92 "Hg10 mi
11:00 PM66 °FClear.5 mph88%29.92 "Hg10 mi
10:30 PM66 °FClear.2 mph88%29.92 "Hg10 mi
10:00 PM66 °FSunny.2 mph88%29.92 "Hg10 mi
9:30 PM66 °FSunny.5 mph88%29.89 "Hg10 mi
9:00 PM70 °FSunny.No wind78%29.89 "Hg10 mi
8:30 PM70 °FSunny.2 mph78%29.89 "Hg10 mi
8:00 PM70 °FPassing clouds.2 mph73%29.89 "HgN/A
7:30 PM72 °FPassing clouds.7 mph69%29.86 "HgN/A
7:00 PM72 °FPassing clouds.9 mph65%29.86 "HgN/A
6:30 PM73 °FPassing clouds.9 mph65%29.86 "HgN/A
6:00 PM73 °FPassing clouds.9 mph69%29.86 "HgN/A
5:30 PM72 °FPassing clouds.12 mph73%29.86 "HgN/A
4:30 PM72 °FSprinkles. Scattered clouds.12 mph78%29.86 "HgN/A
4:00 PM72 °FScattered clouds.16 mph78%29.86 "HgN/A
3:30 PM73 °FPassing clouds.9 mph74%29.83 "HgN/A
3:00 PM73 °FPassing clouds.12 mph74%29.83 "HgN/A
2:30 PM73 °FScattered clouds.7 mph78%29.83 "HgN/A
2:00 PM70 °FScattered showers. Scattered clouds.16 mph78%29.83 "HgN/A
1:30 PM75 °FScattered clouds.7 mph65%29.83 "HgN/A
1:00 PM75 °FPassing clouds.7 mph65%29.83 "HgN/A
12:30 PM73 °FPassing clouds.9 mph69%29.83 "HgN/A
12:00 PM73 °FPassing clouds.9 mph74%29.83 "HgN/A
11:30 AM72 °FPassing clouds.7 mph73%29.83 "HgN/A
11:00 AM70 °FPassing clouds.7 mph78%29.83 "HgN/A
10:30 AM68 °FPassing clouds.7 mph83%29.83 "HgN/A
10:00 AM66 °FPassing clouds.5 mph88%29.83 "HgN/A
9:30 AM66 °FPassing clouds.5 mph83%29.83 "HgN/A
8:30 AM66 °FPassing clouds.No wind83%29.80 "HgN/A
8:00 AM64 °FScattered clouds.5 mph88%29.80 "Hg4 mi
7:30 AM64 °FScattered clouds.7 mph88%29.80 "Hg4 mi
7:00 AM63 °FScattered clouds.5 mph94%29.80 "Hg4 mi
6:30 AM63 °FFog.5 mph94%29.80 "Hg3 mi
6:00 AM63 °FFog.2 mph94%29.80 "Hg2 mi
5:30 AM63 °FFog.2 mph94%29.80 "Hg3 mi
5:00 AM63 °FFog.No wind94%29.80 "Hg3 mi
Weather by CustomWeather, © 2014

See weather overviewHow to use our weather pages